| time (UTC) | temp C | wind direction | speed KPH | gust KPH | rain 1hr cm | rain 24hr cm | rain mn cm | humidity % | barometer mb |
| 20260504190014 | 16 | 319 | 3.2 | 6.4 | 0.00 | 0.00 | 0.00 | 31 | 1011.1 |
| 20260504184528 | 16 | 292 | 1.6 | 9.7 | 0.00 | 0.00 | 0.00 | 31 | 1011.1 |
| 20260504183022 | 16 | 342 | 3.2 | 6.4 | 0.00 | 0.00 | 0.00 | 30 | 1011.4 |
| 20260504181525 | 16 | 146 | 0.0 | 6.4 | 0.00 | 0.00 | 0.00 | 28 | 1011.6 |
| 20260504180028 | 16 | 167 | 3.2 | 6.4 | 0.00 | 0.00 | 0.00 | 31 | 1011.8 |
| 20260504174516 | 15 | 198 | 0.0 | 4.8 | 0.00 | 0.00 | 0.00 | 34 | 1012.0 |
| 20260504173021 | 15 | 59 | 0.0 | 6.4 | 0.00 | 0.00 | 0.00 | 34 | 1012.1 |
| 20260504171506 | 14 | 75 | 1.6 | 6.4 | 0.00 | 0.00 | 0.00 | 37 | 1012.3 |
| 20260504081513 | 2 | 122 | 0.0 | 1.6 | 0.00 | 0.00 | 0.00 | 56 | 1014.0 |
| 20260504044520 | 9 | 174 | 0.0 | 0.0 | 0.00 | 0.00 | 0.00 | 34 | 1014.3 |
| 20260504043027 | 10 | 174 | 0.0 | 0.0 | 0.00 | 0.00 | 0.00 | 30 | 1014.3 |
| 20260504041531 | 10 | 86 | 0.0 | 0.0 | 0.00 | 0.00 | 0.00 | 30 | 1014.4 |
| 20260504040022 | 11 | 86 | 0.0 | 6.4 | 0.00 | 0.00 | 0.00 | 30 | 1014.3 |
| 20260504034523 | 11 | 46 | 0.0 | 4.8 | 0.00 | 0.00 | 0.00 | 27 | 1014.2 |
| 20260504033023 | 12 | 131 | 0.0 | 3.2 | 0.00 | 0.00 | 0.00 | 26 | 1014.0 |
| 20260504031509 | 12 | 28 | 3.2 | 12.9 | 0.00 | 0.00 | 0.00 | 25 | 1013.9 |
| 20260504030011 | 13 | 49 | 6.4 | 9.7 | 0.00 | 0.00 | 0.00 | 24 | 1013.7 |
| 20260504024515 | 14 | 38 | 1.6 | 11.3 | 0.00 | 0.00 | 0.00 | 22 | 1013.6 |
| 20260504023020 | 15 | 46 | 6.4 | 9.7 | 0.00 | 0.00 | 0.00 | 21 | 1013.5 |
| 20260504021525 | 16 | 25 | 3.2 | 4.8 | 0.00 | 0.00 | 0.00 | 19 | 1013.4 |
| 20260504020010 | 17 | 64 | 0.0 | 3.2 | 0.00 | 0.00 | 0.00 | 18 | 1013.4 |
| 20260504014519 | 18 | 295 | 3.2 | 9.7 | 0.00 | 0.00 | 0.00 | 17 | 1013.5 |
| 20260504013016 | 18 | 290 | 3.2 | 9.7 | 0.00 | 0.00 | 0.00 | 18 | 1013.5 |
| 20260504011522 | 19 | 290 | 4.8 | 8.0 | 0.00 | 0.00 | 0.00 | 19 | 1013.6 |
| 20260504010024 | 19 | 303 | 4.8 | 8.0 | 0.00 | 0.00 | 0.00 | 20 | 1013.7 |
| 20260504004516 | 19 | 335 | 4.8 | 12.9 | 0.00 | 0.00 | 0.00 | 20 | 1013.7 |
| 20260504003029 | 20 | 337 | 4.8 | 11.3 | 0.00 | 0.00 | 0.00 | 20 | 1013.7 |
| 20260504001526 | 20 | 301 | 4.8 | 14.5 | 0.00 | 0.00 | 0.00 | 21 | 1013.9 |
| 20260504000022 | 20 | 322 | 6.4 | 17.7 | 0.00 | 0.00 | 0.00 | 19 | 1013.9 |
| 20260503234526 | 20 | 283 | 9.7 | 19.3 | 0.00 | 0.00 | 0.00 | 19 | 1013.9 |
| 20260503233016 | 18 | 307 | 6.4 | 12.9 | 0.00 | 0.00 | 0.00 | 22 | 1013.9 |
| 20260503231523 | 18 | 321 | 6.4 | 12.9 | 0.00 | 0.00 | 0.00 | 20 | 1014.1 |
| 20260503230026 | 19 | 302 | 8.0 | 19.3 | 0.00 | 0.00 | 0.00 | 20 | 1014.5 |
| 20260503224524 | 20 | 281 | 3.2 | 16.1 | 0.00 | 0.00 | 0.00 | 16 | 1014.2 |
| 20260503223026 | 20 | 289 | 8.0 | 19.3 | 0.00 | 0.00 | 0.00 | 17 | 1014.5 |
| 20260503221521 | 20 | 244 | 4.8 | 12.9 | 0.00 | 0.00 | 0.00 | 16 | 1014.5 |
| 20260503220016 | 20 | 270 | 6.4 | 14.5 | 0.00 | 0.00 | 0.00 | 18 | 1014.7 |
| 20260503214521 | 19 | 272 | 3.2 | 17.7 | 0.00 | 0.00 | 0.00 | 15 | 1015.1 |
| 20260503213025 | 19 | 300 | 9.7 | 17.7 | 0.00 | 0.00 | 0.00 | 15 | 1015.5 |
| 20260503211528 | 19 | 139 | 0.0 | 11.3 | 0.00 | 0.00 | 0.00 | 15 | 1015.6 |
| 20260503210014 | 19 | 195 | 9.7 | 16.1 | 0.00 | 0.00 | 0.00 | 16 | 1015.8 |
| 20260503204523 | 19 | 260 | 8.0 | 17.7 | 0.00 | 0.00 | 0.00 | 19 | 1015.8 |
| 20260503203022 | 18 | 194 | 8.0 | 17.7 | 0.00 | 0.00 | 0.00 | 18 | 1016.0 |
| 20260503201528 | 17 | 299 | 4.8 | 9.7 | 0.00 | 0.00 | 0.00 | 21 | 1016.1 |
| 20260503200012 | 18 | 266 | 6.4 | 11.3 | 0.00 | 0.00 | 0.00 | 20 | 1016.2 |
| 20260503194517 | 18 | 18 | 4.8 | 11.3 | 0.00 | 0.00 | 0.00 | 21 | 1016.2 |
| 20260503193022 | 17 | 294 | 3.2 | 12.9 | 0.00 | 0.00 | 0.00 | 20 | 1016.3 |
| 20260503191529 | 17 | 285 | 6.4 | 12.9 | 0.00 | 0.00 | 0.00 | 20 | 1016.5 |